Regional Weather Roundup
Issued by NWS

Home | Current Version | Previous Version | Text Only | Print | Product List | Glossary Off
Versions: 1 2 3 4 5 6 7 8 9 10 11 12 13 14 15 16 17 18 19 20 21 22 23 24 25 26 27 28 29 30 31 32 33 34 35 36 37 38 39 40 41 42 43 44 45 46 47 48 49 50

000
ASUS45 KBOU 212010
RWRCO

WEATHER ROUNDUP FOR COLORADO
NATIONAL WEATHER SERVICE DENVER/BOULDER CO
100 PM MST SUN JAN 21 2018

NOTE: "FAIR" INDICATES FEW OR NO CLOUDS BELOW 12000 FEET WITH NO
SIGNIFICANT WEATHER AND/OR OBSTRUCTIONS TO VISIBILITY.

COZ001>005-013-030-031-212100-
...NORTHWEST COLORADO...

CITY           SKY/WX    TMP DP  RH WIND       PRES   REMARKS
CRAIG          CLOUDY    24  15  68 NW17G30   29.90R WCI  11
HAYDEN         FLURRIES N/A N/A N/A SW5       29.89R
MEEKER         LGT SNOW  23  17  78 N13G20    29.92R VSB 3/4 WCI  11
RABBIT EARS PA SNOW      10   9  92 N7        29.72S VSB 1/2 WCI   0
STEAMBOAT SPGS CLOUDY    21  17  86 SW6       29.85R VSB 1   WCI  13
WALDEN         CLOUDY    18  10  73 N17       29.81S WCI   2
$$

COZ006>008-011-212100-
...WEST CENTRAL VALLEYS...

CITY           SKY/WX    TMP DP  RH WIND       PRES   REMARKS
GRAND JUNCTION CLOUDY    30  23  75 NW16      29.97R WCI  19
MONTROSE       CLOUDY    29  20  69 NW24G31   29.93R WCI  15
EAGLE          LGT SNOW  25  19  80 W9        29.84R FOG     WCI  15
RIFLE          CLOUDY    30  18  60 NW20G25   29.91R WCI  17
DELTA          PTSUNNY   33  21  62 W23G32    29.90R WCI  20
NUCLA          CLOUDY    30  19  64 NW16G23   29.97R WCI  19
$$

COZ017>023-064>068-212100-
...SOUTHWEST COLORADO...

CITY           SKY/WX    TMP DP  RH WIND       PRES   REMARKS
DURANGO        FAIR      28  22  78 SW17      29.76F WCI  16
CORTEZ         FAIR      29  19  66 NW18G29   29.92S WCI  16
PAGOSA SPRINGS LGT SNOW  25  21  83 SW8       29.73S WCI  17
TELLURIDE      SNOW      16  13  88 W18G28    29.81F VSB 1/4 WCI   0
WOLF CREEK PAS NOT AVBL
$$

COZ009-010-012-014-032>034-037-058>063-212100-
...CENTRAL COLORADO...

CITY           SKY/WX    TMP DP  RH WIND       PRES   REMARKS
ASPEN          LGT SNOW  19  14  81 N13       29.78R VSB 1   WCI   6
BUENA VISTA    SNOW      21  17  85 CALM      29.70S VSB 1/2
COPPER MTN     NOT AVBL
BERTHOUD PASS  LGT SNOW   1  -9  60 E6        29.62S VSB 3/4 WCI -10
COTTONWOOD PAS SNOW      21  18  86 SE5       29.65S VSB 1/2 WCI  15
GUNNISON       FLURRIES  22  15  75 W16G29    29.75R WCI   8
KREMMLING      CLOUDY    27  18  69 NW17G24   29.79R HAZE    WCI  14
LEADVILLE      CLOUDY    13   5  70 NW18G24   29.65S WCI  -4
MONARCH PASS   SNOW       5   3  92 W29G38    29.69F VSB<1/4 WCI -19
SALIDA         CLOUDY    24  21  87 NW3       29.78S VSB 3/4
SUNLIGHT       CLOUDY   N/A N/A N/A W9G18     29.77R
WILKERSON PASS CLOUDY     9   3  78 NE8G21    29.64S WCI  -4
$$

COZ069>075-212100-
...SAN LUIS VALLEY/SANGRE DE CRISTO MOUNTAINS...

CITY           SKY/WX    TMP DP  RH WIND       PRES   REMARKS
ALAMOSA        CLOUDY    28  15  58 W18G29    29.65F WCI  15
DEL NORTE      CLOUDY    29  10  44 W12       29.65F WCI  19
LA VETA PASS   SNOW      16  12  86 NE13G18     N/A  VSB 1/4 WCI   2
SAGUACHE       FAIR      27  12  54 NW26G35   29.67S WCI  11
$$

COZ035-036-038>040-212100-
...NORTHERN COLORADO FRONT RANGE...

CITY           SKY/WX    TMP DP  RH WIND       PRES   REMARKS
DENVER INTL AP SNOW      25  21  85 N22       29.82R VSB 1/2 WCI  10
DMNS CITY PARK NOT AVBL
AURORA         LGT SNOW  23  23  99 N16       29.82R FOG     WCI  10
FRONT RANGE AP LGT SNOW  27  25  93 NW21G29   29.81S VSB 3/4 WCI  13
ERIE MUNI ARPT LGT SNOW  27  24  88 N15G26    29.91S VSB 1   WCI  15
BOULDER MUN AP LGT SNOW  27  27 100 N10       29.86S VSB 1   WCI  17
CENTENNIAL     LGT SNOW  23  21  92 N23G33    29.80S VSB 3/4 WCI   7
BROOMFIELD     LGT SNOW  25  23  93 N22G28    29.84S VSB 3/4 WCI  10
FORT COLLINS   LGT SNOW  25  23  93 N23       29.88R VSB 1   WCI  10
LONGMONT       LGT SNOW  30  25  83 N13G18    29.89S WCI  20
$$

COZ041-046-047-076>085-087-088-212100-
...PIKES PEAK/PALMER DIVIDE AND SOUTHERN FOOTHILLS...

CITY           SKY/WX    TMP DP  RH WIND       PRES   REMARKS
COLO. SPRINGS  LGT SNOW  27  19  72 NW21G32   29.72F FOG     WCI  13
A. F. ACADEMY  MIX PCPN  23  18  80 N21G35    29.72S WCI   8
SCHRIEVER AFB  LGT SNOW  25  19  80 N22G30    29.72R WCI  10
CHEYENNE MTN   LGT SNOW  22  20  91 N18G25    29.62F WCI   8
ELLICOTT       LGT SNOW N/A N/A N/A N29G36    29.68F
FALCON         LGT SNOW  24  17  77 N21G35    29.71S WCI   9
FORT CARSON    PTSUNNY   28  21  76 N22G32    29.70S WCI  13
LIMON          SNOW      26  23  88 N24G35    29.71F VSB 1/2 WCI  11
MONUMENT HILL  LGT SNOW  19  18  93 N17G32    29.74S VSB 3/4 WCI   4
CANON CITY     LGT SNOW  32  27  80 W12       29.72F WCI  23
WALSENBURG     CLOUDY    28  25  86 N18       29.70S WCI  16
TRINIDAD       LGT SNOW  28  23  81 N22G29    29.70R WCI  14
$$

COZ042>045-048>051-090-091-212100-
...NORTHEAST COLORADO...

CITY           SKY/WX    TMP DP  RH WIND       PRES   REMARKS
GREELEY ARPT   LGT SNOW  26  23  88 N28       29.86S VSB 3/4 WCI  10
AKRON          SNOW      27  25  92 N24G33    29.76S VSB 1/2 WCI  12
BURLINGTON     LGT SNOW  29  28  96 N20G30    29.64F FOG     WCI  16
WRAY           LGT SNOW  32  30  93 N22G31    29.72F VSB 3/4 WCI  19
YUMA           LGT SNOW  28  27  93 N25       29.73F VSB 3/4 WCI  14
STERLING       NOT AVBL
HOLYOKE        LGT SNOW  34  32  93 N22G30    29.75F WCI  22
FORT MORGAN    LGT SNOW  29  25  85 N20G28    29.82S VSB 3/4 WCI  16
$$

COZ086-089-092>099-212100-
...SOUTHEAST COLORADO...

CITY           SKY/WX    TMP DP  RH WIND       PRES   REMARKS
PUEBLO         CLOUDY    33  25  72 N17       29.74S WCI  22
LA JUNTA       SNOW      32  27  81 N18       29.71F VSB 1/2 WCI  20
LAMAR          LGT SNOW  32  29  88 N9        29.66S FOG     WCI  24
SPRINGFIELD      N/A     29  29 100 NW12      29.64F WCI  19
$$



USA.gov is the U.S. government's official web portal to all federal, state and local government web resources and services.